This is the latest recevied weather packets stored in our database for station/object K5BOU. If no packets are shown the sender has not sent any weather packets the latest 10 day(s).
| Time | Temp. | Humidity | Pressure | Rain* | Wind** | Luminosity | Snow |
|---|---|---|---|---|---|---|---|
| 1778007449 | 27.22° C | 88% | 1006.7 hPa | 0 mm | - | 275 W/m² | - |
| 1778007145 | 27.22° C | 88% | 1006.8 hPa | 0 mm | - | 253 W/m² | - |
| 1778006841 | 27.22° C | 88% | 1006.6 hPa | 0 mm | - | 266 W/m² | - |
| 1778006539 | 27.22° C | 87% | 1006.6 hPa | 0 mm | - | 265 W/m² | - |
| 1778006235 | 27.22° C | 87% | 1006.9 hPa | 0 mm | - | 305 W/m² | - |
| 1778005933 | 27.22° C | 88% | 1006.8 hPa | 0 mm | - | 292 W/m² | - |
| 1778005629 | 27.22° C | 89% | 1007 hPa | 0 mm | - | 275 W/m² | - |
| 1778005326 | 26.67° C | 90% | 1006.8 hPa | 0 mm | - | 253 W/m² | - |
| 1778005022 | 26.67° C | 89% | 1007.1 hPa | 0 mm | - | 98 W/m² | - |
| 1778004720 | 27.22° C | 89% | 1007.1 hPa | 0 mm | - | 195 W/m² | - |
| 1778004416 | 27.22° C | 89% | 1007.2 hPa | 0 mm | - | 188 W/m² | - |
| 1778004113 | 26.67° C | 89% | 1007.2 hPa | 0 mm | - | 234 W/m² | - |
| 1778003809 | 26.67° C | 89% | 1007.3 hPa | 0 mm | - | 240 W/m² | - |
| 1778003505 | 27.22° C | 89% | 1007.1 hPa | 0 mm | - | 236 W/m² | - |
| 1778003202 | 26.67° C | 89% | 1007.2 hPa | 0 mm | - | 254 W/m² | - |
| 1778002898 | 26.67° C | 90% | 1007.3 hPa | 0 mm | - | 254 W/m² | - |
| 1778002595 | 26.67° C | 90% | 1007.4 hPa | 0 mm | - | 239 W/m² | - |
| 1778002292 | 26.67° C | 90% | 1007.3 hPa | 0 mm | - | 232 W/m² | - |
| 1778001990 | 26.67° C | 91% | 1007.3 hPa | 0 mm | - | 244 W/m² | - |
| 1778001686 | 26.11° C | 91% | 1007.3 hPa | 0 mm | - | 189 W/m² | - |
| 1778001381 | 26.11° C | 91% | 1007.2 hPa | 0 mm | - | 175 W/m² | - |
| 1778001078 | 26.11° C | 91% | 1007.2 hPa | 0 mm | - | 95 W/m² | - |
| 1778000776 | 26.11° C | 92% | 1007.5 hPa | 0 mm | - | 152 W/m² | - |
| 1778000472 | 26.11° C | 92% | 1007.3 hPa | 0 mm | - | 186 W/m² | - |
| 1778000167 | 26.11° C | 92% | 1007.5 hPa | 0 mm | - | 167 W/m² | - |
* Rain latest hour (hover to see other rain measurements)
** Current wind speed in m/s (hover to see current wind gust speed)